Year,Month,Day,Hour,Minute,Value (Times are PST for windspeed in km/hr)
2013,09,29,00,00,4.10
2013,09,29,00,01,4.40
2013,09,29,00,02,1.50
2013,09,29,00,03,0.00
2013,09,29,00,04,3.40
2013,09,29,00,05,1.30
2013,09,29,00,06,0.10
2013,09,29,00,07,1.80
2013,09,29,00,08,0.60
2013,09,29,00,09,1.20
2013,09,29,00,10,0.50
2013,09,29,00,11,2.70
2013,09,29,00,12,4.30
2013,09,29,00,13,4.80
2013,09,29,00,14,3.20
2013,09,29,00,15,0.10
2013,09,29,00,16,1.90
2013,09,29,00,17,2.90
2013,09,29,00,18,0.70
2013,09,29,00,19,0.30
2013,09,29,00,20,2.20
2013,09,29,00,21,0.50
2013,09,29,00,22,0.00
2013,09,29,00,23,0.00
2013,09,29,00,24,0.00
2013,09,29,00,25,0.00
2013,09,29,00,26,0.00
2013,09,29,00,27,0.20
2013,09,29,00,28,0.00
2013,09,29,00,29,0.00
2013,09,29,00,30,1.70
2013,09,29,00,31,0.00
2013,09,29,00,32,3.80
2013,09,29,00,33,4.00
2013,09,29,00,34,4.60
2013,09,29,00,35,2.70
2013,09,29,00,36,1.90
2013,09,29,00,37,0.40
2013,09,29,00,38,0.10
2013,09,29,00,39,0.00
2013,09,29,00,40,0.00
2013,09,29,00,41,0.00
2013,09,29,00,42,0.00
2013,09,29,00,43,0.10
2013,09,29,00,44,0.20
2013,09,29,00,45,1.80
2013,09,29,00,46,2.20
2013,09,29,00,47,2.20
2013,09,29,00,48,2.80
2013,09,29,00,49,0.50
2013,09,29,00,50,1.50
2013,09,29,00,51,3.60
2013,09,29,00,52,1.50
2013,09,29,00,53,0.00
2013,09,29,00,54,0.00
2013,09,29,00,55,4.10
2013,09,29,00,56,6.70
2013,09,29,00,57,4.30
2013,09,29,00,58,6.30
2013,09,29,00,59,3.40
2013,09,29,01,00,3.20
2013,09,29,01,01,1.80
2013,09,29,01,02,2.80
2013,09,29,01,03,1.10
2013,09,29,01,04,2.30
2013,09,29,01,05,0.00
2013,09,29,01,06,0.00
2013,09,29,01,07,0.00
2013,09,29,01,08,0.00
2013,09,29,01,09,0.20
2013,09,29,01,10,0.50
2013,09,29,01,11,0.10
2013,09,29,01,12,0.00
2013,09,29,01,13,0.40
2013,09,29,01,14,1.40
2013,09,29,01,15,1.70
2013,09,29,01,16,0.20
2013,09,29,01,17,0.00
2013,09,29,01,18,0.00
2013,09,29,01,19,0.00
2013,09,29,01,20,0.60
2013,09,29,01,21,1.30
2013,09,29,01,22,4.70
2013,09,29,01,23,5.80
2013,09,29,01,24,4.40
2013,09,29,01,25,1.60
2013,09,29,01,26,3.90
2013,09,29,01,27,3.20
2013,09,29,01,28,3.50
2013,09,29,01,29,5.30
2013,09,29,01,30,7.30
2013,09,29,01,31,7.60
2013,09,29,01,32,7.90
2013,09,29,01,33,8.60
2013,09,29,01,34,10.20
2013,09,29,01,35,9.30
2013,09,29,01,36,9.70
2013,09,29,01,37,10.10
2013,09,29,01,38,11.30
2013,09,29,01,39,10.00
2013,09,29,01,40,8.90
2013,09,29,01,41,3.80
2013,09,29,01,42,3.20
2013,09,29,01,43,2.50
2013,09,29,01,44,3.50
2013,09,29,01,45,3.10
2013,09,29,01,46,2.80
2013,09,29,01,47,1.40
2013,09,29,01,48,1.20
2013,09,29,01,49,3.90
2013,09,29,01,50,3.70
2013,09,29,01,51,4.70
2013,09,29,01,52,4.00
2013,09,29,01,53,4.60
2013,09,29,01,54,4.30
2013,09,29,01,55,3.50
2013,09,29,01,56,2.90
2013,09,29,01,57,5.30
2013,09,29,01,58,5.90
2013,09,29,01,59,4.60
2013,09,29,02,00,2.10
2013,09,29,02,01,3.20
2013,09,29,02,02,5.90
2013,09,29,02,03,3.70
2013,09,29,02,04,6.00
2013,09,29,02,05,5.10
2013,09,29,02,06,4.50
2013,09,29,02,07,1.40
2013,09,29,02,08,4.40
2013,09,29,02,09,1.80
2013,09,29,02,10,3.10
2013,09,29,02,11,2.50
2013,09,29,02,12,0.60
2013,09,29,02,13,0.20
2013,09,29,02,14,0.70
2013,09,29,02,15,1.10
2013,09,29,02,16,0.10
2013,09,29,02,17,0.30
2013,09,29,02,18,0.90
2013,09,29,02,19,1.90
2013,09,29,02,20,3.50
2013,09,29,02,21,4.50
2013,09,29,02,22,3.20
2013,09,29,02,23,5.40
2013,09,29,02,24,3.20
2013,09,29,02,25,4.40
2013,09,29,02,26,5.00
2013,09,29,02,27,5.20
2013,09,29,02,28,6.90
2013,09,29,02,29,5.10
2013,09,29,02,30,3.20
2013,09,29,02,31,2.40
2013,09,29,02,32,2.50
2013,09,29,02,33,5.20
2013,09,29,02,34,5.60
2013,09,29,02,35,11.40
2013,09,29,02,36,8.50
2013,09,29,02,37,6.40
2013,09,29,02,38,7.60
2013,09,29,02,39,7.60
2013,09,29,02,40,9.50
2013,09,29,02,41,6.40
2013,09,29,02,42,4.20
2013,09,29,02,43,6.70
2013,09,29,02,44,6.40
2013,09,29,02,45,7.90
2013,09,29,02,46,6.50
2013,09,29,02,47,7.20
2013,09,29,02,48,5.90
2013,09,29,02,49,5.80
2013,09,29,02,50,4.70
2013,09,29,02,51,3.20
2013,09,29,02,52,3.60
2013,09,29,02,53,2.50
2013,09,29,02,54,2.90
2013,09,29,02,55,3.40
2013,09,29,02,56,2.40
2013,09,29,02,57,2.90
2013,09,29,02,58,0.40
2013,09,29,02,59,0.70
2013,09,29,03,00,2.80
2013,09,29,03,01,2.80
2013,09,29,03,02,4.30
2013,09,29,03,03,3.60
2013,09,29,03,04,2.70
2013,09,29,03,05,2.00
2013,09,29,03,06,0.80
2013,09,29,03,07,0.80
2013,09,29,03,08,0.40
2013,09,29,03,09,2.60
2013,09,29,03,10,3.90
2013,09,29,03,11,2.80
2013,09,29,03,12,2.70
2013,09,29,03,13,2.30
2013,09,29,03,14,2.40
2013,09,29,03,15,0.00
2013,09,29,03,16,0.10
2013,09,29,03,17,0.90
2013,09,29,03,18,0.80
2013,09,29,03,19,0.60
2013,09,29,03,20,1.50
2013,09,29,03,21,0.10
2013,09,29,03,22,0.30
2013,09,29,03,23,0.30
2013,09,29,03,24,0.80
2013,09,29,03,25,0.10
2013,09,29,03,26,1.60
2013,09,29,03,27,1.50
2013,09,29,03,28,0.00
2013,09,29,03,29,0.00
2013,09,29,03,30,0.00
2013,09,29,03,31,0.10
2013,09,29,03,32,0.00
2013,09,29,03,33,0.20
2013,09,29,03,34,1.40
2013,09,29,03,35,2.50
2013,09,29,03,36,3.00
2013,09,29,03,37,3.30
2013,09,29,03,38,1.40
2013,09,29,03,39,1.40
2013,09,29,03,40,1.20
2013,09,29,03,41,0.90
2013,09,29,03,42,0.50
2013,09,29,03,43,0.00
2013,09,29,03,44,0.10
2013,09,29,03,45,1.40
2013,09,29,03,46,2.70
2013,09,29,03,47,0.30
2013,09,29,03,48,0.70
2013,09,29,03,49,3.10
2013,09,29,03,50,3.40
2013,09,29,03,51,3.10
2013,09,29,03,52,3.00
2013,09,29,03,53,2.00
2013,09,29,03,54,0.10
2013,09,29,03,55,1.00
2013,09,29,03,56,0.20
2013,09,29,03,57,0.00
2013,09,29,03,58,0.50
2013,09,29,03,59,0.80
2013,09,29,04,00,2.30
2013,09,29,04,01,1.80
2013,09,29,04,02,1.60
2013,09,29,04,03,1.40
2013,09,29,04,04,1.20
2013,09,29,04,05,1.80
2013,09,29,04,06,1.50
2013,09,29,04,07,3.40
2013,09,29,04,08,3.50
2013,09,29,04,09,3.20
2013,09,29,04,10,0.40
2013,09,29,04,11,2.00
2013,09,29,04,12,4.30
2013,09,29,04,13,3.30
2013,09,29,04,14,3.40
2013,09,29,04,15,1.60
2013,09,29,04,16,3.90
2013,09,29,04,17,3.10
2013,09,29,04,18,4.80
2013,09,29,04,19,4.10
2013,09,29,04,20,5.60
2013,09,29,04,21,3.70
2013,09,29,04,22,3.10
2013,09,29,04,23,3.30
2013,09,29,04,24,1.40
2013,09,29,04,25,1.00
2013,09,29,04,26,3.00
2013,09,29,04,27,1.40
2013,09,29,04,28,0.10
2013,09,29,04,29,0.00
2013,09,29,04,30,0.00
2013,09,29,04,31,0.00
2013,09,29,04,32,0.00
2013,09,29,04,33,1.70
2013,09,29,04,34,1.90
2013,09,29,04,35,3.90
2013,09,29,04,36,5.10
2013,09,29,04,37,3.80
2013,09,29,04,38,4.20
2013,09,29,04,39,4.10
2013,09,29,04,40,4.60
2013,09,29,04,41,5.00
2013,09,29,04,42,5.60
2013,09,29,04,43,6.60
2013,09,29,04,44,6.50
2013,09,29,04,45,6.90
2013,09,29,04,46,3.60
2013,09,29,04,47,3.70
2013,09,29,04,48,3.50
2013,09,29,04,49,2.60
2013,09,29,04,50,1.50
2013,09,29,04,51,2.90
2013,09,29,04,52,4.60
2013,09,29,04,53,4.70
2013,09,29,04,54,2.70
2013,09,29,04,55,2.80
2013,09,29,04,56,2.00
2013,09,29,04,57,0.60
2013,09,29,04,58,4.10
2013,09,29,04,59,5.90
2013,09,29,05,00,2.40
2013,09,29,05,01,3.90
2013,09,29,05,02,4.70
2013,09,29,05,03,3.10
2013,09,29,05,04,5.30
2013,09,29,05,05,8.00
2013,09,29,05,06,5.90
2013,09,29,05,07,7.20
2013,09,29,05,08,7.00
2013,09,29,05,09,5.60
2013,09,29,05,10,4.10
2013,09,29,05,11,5.80
2013,09,29,05,12,6.20
2013,09,29,05,13,6.10
2013,09,29,05,14,5.80
2013,09,29,05,15,7.00
2013,09,29,05,16,9.70
2013,09,29,05,17,11.80
2013,09,29,05,18,17.30
2013,09,29,05,19,18.20
2013,09,29,05,20,7.90
2013,09,29,05,21,8.70
2013,09,29,05,22,8.10
2013,09,29,05,23,9.70
2013,09,29,05,24,6.40
2013,09,29,05,25,5.10
2013,09,29,05,26,3.90
2013,09,29,05,27,2.50
2013,09,29,05,28,3.10
2013,09,29,05,29,7.40
2013,09,29,05,30,6.00
2013,09,29,05,31,3.90
2013,09,29,05,32,0.80
2013,09,29,05,33,2.60
2013,09,29,05,34,4.90
2013,09,29,05,35,3.60
2013,09,29,05,36,3.30
2013,09,29,05,37,5.30
2013,09,29,05,38,6.00
2013,09,29,05,39,7.60
2013,09,29,05,40,3.90
2013,09,29,05,41,2.10
2013,09,29,05,42,4.80
2013,09,29,05,43,1.90
2013,09,29,05,44,6.70
2013,09,29,05,45,4.70
2013,09,29,05,46,5.20
2013,09,29,05,47,3.40
2013,09,29,05,48,4.10
2013,09,29,05,49,4.60
2013,09,29,05,50,3.30
2013,09,29,05,51,4.90
2013,09,29,05,52,3.80
2013,09,29,05,53,4.20
2013,09,29,05,54,3.70
2013,09,29,05,55,4.00
2013,09,29,05,56,5.50
2013,09,29,05,57,2.60
2013,09,29,05,58,8.70
2013,09,29,05,59,7.50
2013,09,29,06,00,6.30
2013,09,29,06,01,11.30
2013,09,29,06,02,10.60
2013,09,29,06,03,10.60
2013,09,29,06,04,11.80
2013,09,29,06,05,8.80
2013,09,29,06,06,14.20
2013,09,29,06,07,17.50
2013,09,29,06,08,9.10
2013,09,29,06,09,9.60
2013,09,29,06,10,11.80
2013,09,29,06,11,7.50
2013,09,29,06,12,7.80
2013,09,29,06,13,7.00
2013,09,29,06,14,8.70
2013,09,29,06,15,7.80
2013,09,29,06,16,8.10
2013,09,29,06,17,7.60
2013,09,29,06,18,17.30
2013,09,29,06,19,7.80
2013,09,29,06,20,9.40
2013,09,29,06,21,7.60
2013,09,29,06,22,9.40
2013,09,29,06,23,9.40
2013,09,29,06,24,7.30
2013,09,29,06,25,9.00
2013,09,29,06,26,9.10
2013,09,29,06,27,8.70
2013,09,29,06,28,10.90
2013,09,29,06,29,12.50
2013,09,29,06,30,12.80
2013,09,29,06,31,12.20
2013,09,29,06,32,10.60
2013,09,29,06,33,8.90
2013,09,29,06,34,9.30
2013,09,29,06,35,8.90
2013,09,29,06,36,7.50
2013,09,29,06,37,5.80
2013,09,29,06,38,9.50
2013,09,29,06,39,8.90
2013,09,29,06,40,10.00
2013,09,29,06,41,10.10
2013,09,29,06,42,10.50
2013,09,29,06,43,9.60
2013,09,29,06,44,10.50
2013,09,29,06,45,16.30
2013,09,29,06,46,14.10
2013,09,29,06,47,10.50
2013,09,29,06,48,18.10
2013,09,29,06,49,14.10
2013,09,29,06,50,10.10
2013,09,29,06,51,10.80
2013,09,29,06,52,11.70
2013,09,29,06,53,10.10
2013,09,29,06,54,10.90
2013,09,29,06,55,10.10
2013,09,29,06,56,9.70
2013,09,29,06,57,11.30
2013,09,29,06,58,9.60
2013,09,29,06,59,10.30
2013,09,29,07,00,5.30
2013,09,29,07,01,11.80
2013,09,29,07,02,11.20
2013,09,29,07,03,5.30
2013,09,29,07,04,4.90
2013,09,29,07,05,2.70
2013,09,29,07,06,6.30
2013,09,29,07,07,6.60
2013,09,29,07,08,3.80
2013,09,29,07,09,7.30
2013,09,29,07,10,8.80
2013,09,29,07,11,6.30
2013,09,29,07,12,4.30
2013,09,29,07,13,3.20
2013,09,29,07,14,3.00
2013,09,29,07,15,5.70
2013,09,29,07,16,5.00
2013,09,29,07,17,7.60
2013,09,29,07,18,6.70
2013,09,29,07,19,7.80
2013,09,29,07,20,7.80
2013,09,29,07,21,4.60
2013,09,29,07,22,3.50
2013,09,29,07,23,4.70
2013,09,29,07,24,4.10
2013,09,29,07,25,4.10
2013,09,29,07,26,3.90
2013,09,29,07,27,6.50
2013,09,29,07,28,9.90
2013,09,29,07,29,8.10
2013,09,29,07,30,5.70
2013,09,29,07,31,6.40
2013,09,29,07,32,7.90
2013,09,29,07,33,8.40
2013,09,29,07,34,7.30
2013,09,29,07,35,12.50
2013,09,29,07,36,8.90
2013,09,29,07,37,8.50
2013,09,29,07,38,8.30
2013,09,29,07,39,5.20
2013,09,29,07,40,3.90
2013,09,29,07,41,6.00
2013,09,29,07,42,2.50
2013,09,29,07,43,4.60
2013,09,29,07,44,3.40
2013,09,29,07,45,3.40
2013,09,29,07,46,4.40
2013,09,29,07,47,2.70
2013,09,29,07,48,5.00
2013,09,29,07,49,3.60
2013,09,29,07,50,6.10
2013,09,29,07,51,7.80
2013,09,29,07,52,5.20
2013,09,29,07,53,5.30
2013,09,29,07,54,3.90
2013,09,29,07,55,7.80
2013,09,29,07,56,4.50
2013,09,29,07,57,8.10
2013,09,29,07,58,7.10
2013,09,29,07,59,6.90
2013,09,29,08,00,4.70
2013,09,29,08,01,5.50
2013,09,29,08,02,8.00
2013,09,29,08,03,7.80
2013,09,29,08,04,6.50
2013,09,29,08,05,6.10
2013,09,29,08,06,7.90
2013,09,29,08,07,7.50
2013,09,29,08,08,12.30
2013,09,29,08,09,10.40
2013,09,29,08,10,12.80
2013,09,29,08,11,10.50
2013,09,29,08,12,9.50
2013,09,29,08,13,15.90
2013,09,29,08,14,7.10
2013,09,29,08,15,4.70
2013,09,29,08,16,8.50
2013,09,29,08,17,6.00
2013,09,29,08,18,9.20
2013,09,29,08,19,11.70
2013,09,29,08,20,11.80
2013,09,29,08,21,11.60
2013,09,29,08,22,10.70
2013,09,29,08,23,10.50
2013,09,29,08,24,9.30
2013,09,29,08,25,12.80
2013,09,29,08,26,13.60
2013,09,29,08,27,8.30
2013,09,29,08,28,9.10
2013,09,29,08,29,10.50
2013,09,29,08,30,10.70
2013,09,29,08,31,9.70
2013,09,29,08,32,9.00
2013,09,29,08,33,6.60
2013,09,29,08,34,11.70
2013,09,29,08,35,9.60
2013,09,29,08,36,9.60
2013,09,29,08,37,9.90
2013,09,29,08,38,8.00
2013,09,29,08,39,12.10
2013,09,29,08,40,7.20
2013,09,29,08,41,6.40
2013,09,29,08,42,6.90
2013,09,29,08,43,5.40
2013,09,29,08,44,8.40
2013,09,29,08,45,8.70
2013,09,29,08,46,8.80
2013,09,29,08,47,8.90
2013,09,29,08,48,8.90
2013,09,29,08,49,6.20
2013,09,29,08,50,8.20
2013,09,29,08,51,8.50
2013,09,29,08,52,6.80
2013,09,29,08,53,9.30
2013,09,29,08,54,10.90
2013,09,29,08,55,10.10
2013,09,29,08,56,8.10
2013,09,29,08,57,8.80
2013,09,29,08,58,7.90
2013,09,29,08,59,7.30
2013,09,29,09,00,6.20
2013,09,29,09,01,7.60
2013,09,29,09,02,7.00
2013,09,29,09,03,9.60
2013,09,29,09,04,9.00
2013,09,29,09,05,5.60
2013,09,29,09,06,2.30
2013,09,29,09,07,0.00
2013,09,29,09,08,1.00
2013,09,29,09,09,0.00
2013,09,29,09,10,0.00
2013,09,29,09,11,0.30
2013,09,29,09,12,1.20
2013,09,29,09,13,0.50
2013,09,29,09,14,0.20
2013,09,29,09,15,1.40
2013,09,29,09,16,0.80
2013,09,29,09,17,0.20
2013,09,29,09,18,1.80
2013,09,29,09,19,1.30
2013,09,29,09,20,2.40
2013,09,29,09,21,0.80
2013,09,29,09,22,0.00
2013,09,29,09,23,0.70
2013,09,29,09,24,3.10
2013,09,29,09,25,3.50
2013,09,29,09,26,3.00
2013,09,29,09,27,0.70
2013,09,29,09,28,1.90
2013,09,29,09,29,2.60
2013,09,29,09,30,3.80
2013,09,29,09,31,4.20
2013,09,29,09,32,2.60
2013,09,29,09,33,1.50
2013,09,29,09,34,0.00
2013,09,29,09,35,0.00
2013,09,29,09,36,0.00
2013,09,29,09,37,0.10
2013,09,29,09,38,0.00
2013,09,29,09,39,0.00
2013,09,29,09,40,0.00
2013,09,29,09,41,0.00
2013,09,29,09,42,2.80
2013,09,29,09,43,4.40
2013,09,29,09,44,3.00
2013,09,29,09,45,2.50
2013,09,29,09,46,0.30
2013,09,29,09,47,0.30
2013,09,29,09,48,3.80
2013,09,29,09,49,4.50
2013,09,29,09,50,5.40
2013,09,29,09,51,6.00
2013,09,29,09,52,6.40
2013,09,29,09,53,4.20
2013,09,29,09,54,4.10
2013,09,29,09,55,5.70
2013,09,29,09,56,6.00
2013,09,29,09,57,2.70
2013,09,29,09,58,2.10
2013,09,29,09,59,2.70
2013,09,29,10,00,1.40
2013,09,29,10,01,1.30
2013,09,29,10,02,0.90
2013,09,29,10,03,0.10
2013,09,29,10,04,1.90
2013,09,29,10,05,0.10
2013,09,29,10,06,0.00
2013,09,29,10,07,0.00
2013,09,29,10,08,0.00
2013,09,29,10,09,0.00
2013,09,29,10,10,0.00
2013,09,29,10,11,1.90
2013,09,29,10,12,2.60
2013,09,29,10,13,1.40
2013,09,29,10,14,2.30
2013,09,29,10,15,4.10
2013,09,29,10,16,5.80
2013,09,29,10,17,4.30
2013,09,29,10,18,4.70
2013,09,29,10,19,3.20
2013,09,29,10,20,6.30
2013,09,29,10,21,9.20
2013,09,29,10,22,12.70
2013,09,29,10,23,8.70
2013,09,29,10,24,9.60
2013,09,29,10,25,6.70
2013,09,29,10,26,8.30
2013,09,29,10,27,8.60
2013,09,29,10,28,7.70
2013,09,29,10,29,5.00
2013,09,29,10,30,4.10
2013,09,29,10,31,7.20
2013,09,29,10,32,12.50
2013,09,29,10,33,13.30
2013,09,29,10,34,13.50
2013,09,29,10,35,11.20
2013,09,29,10,36,9.20
2013,09,29,10,37,8.50
2013,09,29,10,38,8.20
2013,09,29,10,39,8.10
2013,09,29,10,40,9.10
2013,09,29,10,41,9.00
2013,09,29,10,42,8.10
2013,09,29,10,43,9.40
2013,09,29,10,44,7.20
2013,09,29,10,45,7.90
2013,09,29,10,46,7.90
2013,09,29,10,47,8.00
2013,09,29,10,48,9.30
2013,09,29,10,49,7.70
2013,09,29,10,50,9.10
2013,09,29,10,51,6.00
2013,09,29,10,52,8.10
2013,09,29,10,53,7.70
2013,09,29,10,54,7.80
2013,09,29,10,55,12.30
2013,09,29,10,56,9.30
2013,09,29,10,57,8.40
2013,09,29,10,58,9.20
2013,09,29,10,59,11.20
2013,09,29,11,00,7.60
2013,09,29,11,01,6.00
2013,09,29,11,02,7.00
2013,09,29,11,03,6.50
2013,09,29,11,04,8.00
2013,09,29,11,05,4.10
2013,09,29,11,06,4.00
2013,09,29,11,07,3.50
2013,09,29,11,08,4.40
2013,09,29,11,09,4.40
2013,09,29,11,10,7.50
2013,09,29,11,11,6.40
2013,09,29,11,12,7.20
2013,09,29,11,13,5.10
2013,09,29,11,14,7.40
2013,09,29,11,15,6.10
2013,09,29,11,16,6.90
2013,09,29,11,17,7.70
2013,09,29,11,18,5.70
2013,09,29,11,19,6.20
2013,09,29,11,20,6.70
2013,09,29,11,21,7.50
2013,09,29,11,22,6.90
2013,09,29,11,23,7.40
2013,09,29,11,24,9.60
2013,09,29,11,25,6.30
2013,09,29,11,26,6.10
2013,09,29,11,27,6.80
2013,09,29,11,28,4.20
2013,09,29,11,29,5.00
2013,09,29,11,30,5.40
2013,09,29,11,31,5.10
2013,09,29,11,32,3.30
2013,09,29,11,33,4.50
2013,09,29,11,34,3.90
2013,09,29,11,35,2.80
2013,09,29,11,36,1.90
2013,09,29,11,37,3.20
2013,09,29,11,38,1.30
2013,09,29,11,39,1.70
2013,09,29,11,40,6.40
2013,09,29,11,41,6.10
2013,09,29,11,42,9.30
2013,09,29,11,43,8.60
2013,09,29,11,44,7.80
2013,09,29,11,45,5.10
2013,09,29,11,46,8.40
2013,09,29,11,47,5.40
2013,09,29,11,48,2.00
2013,09,29,11,49,2.10
2013,09,29,11,50,0.90
2013,09,29,11,51,7.00
2013,09,29,11,52,4.70
2013,09,29,11,53,7.10
2013,09,29,11,54,6.80
2013,09,29,11,55,3.80
2013,09,29,11,56,4.70
2013,09,29,11,57,1.90
2013,09,29,11,58,0.00
2013,09,29,11,59,0.10
2013,09,29,12,00,0.30
2013,09,29,12,01,0.00
2013,09,29,12,02,0.50
2013,09,29,12,03,3.00
2013,09,29,12,04,2.90
2013,09,29,12,05,3.90
2013,09,29,12,06,4.20
2013,09,29,12,07,2.00
2013,09,29,12,08,0.10
2013,09,29,12,09,1.80
2013,09,29,12,10,0.00
2013,09,29,12,11,1.50
2013,09,29,12,12,2.90
2013,09,29,12,13,0.70
2013,09,29,12,14,1.80
2013,09,29,12,15,3.10
2013,09,29,12,16,2.80
2013,09,29,12,17,4.20
2013,09,29,12,18,3.70
2013,09,29,12,19,3.00
2013,09,29,12,20,2.50
2013,09,29,12,21,0.90
2013,09,29,12,22,0.00
2013,09,29,12,23,0.70
2013,09,29,12,24,1.20
2013,09,29,12,25,0.80
2013,09,29,12,26,1.60
2013,09,29,12,27,3.00
2013,09,29,12,28,0.50
2013,09,29,12,29,0.00
2013,09,29,12,30,0.00
2013,09,29,12,31,0.00
2013,09,29,12,32,0.30
2013,09,29,12,33,2.50
2013,09,29,12,34,2.00
2013,09,29,12,35,0.30
2013,09,29,12,36,1.50
2013,09,29,12,37,1.10
2013,09,29,12,38,0.20
2013,09,29,12,39,0.00
2013,09,29,12,40,1.80
2013,09,29,12,41,2.20
2013,09,29,12,42,2.00
2013,09,29,12,43,3.00
2013,09,29,12,44,2.60
2013,09,29,12,45,1.00
2013,09,29,12,46,2.20
2013,09,29,12,47,0.70
2013,09,29,12,48,0.40
2013,09,29,12,49,1.60
2013,09,29,12,50,2.30
2013,09,29,12,51,0.70
2013,09,29,12,52,0.30
2013,09,29,12,53,2.20
2013,09,29,12,54,2.80
2013,09,29,12,55,0.10
2013,09,29,12,56,0.20
2013,09,29,12,57,0.00
2013,09,29,12,58,0.00
2013,09,29,12,59,0.50
2013,09,29,13,00,1.00
2013,09,29,13,01,0.00
2013,09,29,13,02,1.40
2013,09,29,13,03,1.40
2013,09,29,13,04,0.30
2013,09,29,13,05,2.10
2013,09,29,13,06,0.20
2013,09,29,13,07,0.10
2013,09,29,13,08,0.10
2013,09,29,13,09,0.20
2013,09,29,13,10,0.30
2013,09,29,13,11,0.70
2013,09,29,13,12,0.70
2013,09,29,13,13,0.40
2013,09,29,13,14,0.40
2013,09,29,13,15,1.70
2013,09,29,13,16,2.20
2013,09,29,13,17,0.40
2013,09,29,13,18,1.00
2013,09,29,13,19,0.20
2013,09,29,13,20,0.00
2013,09,29,13,21,0.40
2013,09,29,13,22,2.00
2013,09,29,13,23,0.20
2013,09,29,13,24,1.20
2013,09,29,13,25,2.50
2013,09,29,13,26,3.10
2013,09,29,13,27,0.00
2013,09,29,13,28,1.10
2013,09,29,13,29,1.50
2013,09,29,13,30,0.00
2013,09,29,13,31,0.00
2013,09,29,13,32,0.10
2013,09,29,13,33,1.40
2013,09,29,13,34,0.20
2013,09,29,13,35,1.50
2013,09,29,13,36,4.40
2013,09,29,13,37,3.60
2013,09,29,13,38,3.90
2013,09,29,13,39,1.90
2013,09,29,13,40,1.60
2013,09,29,13,41,3.10
2013,09,29,13,42,0.50
2013,09,29,13,43,0.30
2013,09,29,13,44,0.00
2013,09,29,13,45,1.60
2013,09,29,13,46,0.10
2013,09,29,13,47,1.40
2013,09,29,13,48,0.70
2013,09,29,13,49,0.40
2013,09,29,13,50,1.00
2013,09,29,13,51,1.10
2013,09,29,13,52,0.00
2013,09,29,13,53,0.20
2013,09,29,13,54,0.00
2013,09,29,13,55,0.10
2013,09,29,13,56,0.70
2013,09,29,13,57,1.30
2013,09,29,13,58,0.00
2013,09,29,13,59,0.00
2013,09,29,14,00,0.00
2013,09,29,14,01,0.00
2013,09,29,14,02,1.10
2013,09,29,14,03,1.80
2013,09,29,14,04,2.20
2013,09,29,14,05,1.20
2013,09,29,14,06,2.00
2013,09,29,14,07,1.00
2013,09,29,14,08,0.40
2013,09,29,14,09,1.60
2013,09,29,14,10,0.40
2013,09,29,14,11,0.60
2013,09,29,14,12,2.60
2013,09,29,14,13,2.30
2013,09,29,14,14,1.00
2013,09,29,14,15,2.70
2013,09,29,14,16,4.10
2013,09,29,14,17,2.30
2013,09,29,14,18,2.40
2013,09,29,14,19,0.60
2013,09,29,14,20,3.20
2013,09,29,14,21,1.40
2013,09,29,14,22,1.80
2013,09,29,14,23,1.20
2013,09,29,14,24,1.50
2013,09,29,14,25,0.10
2013,09,29,14,26,1.00
2013,09,29,14,27,2.20
2013,09,29,14,28,1.40
2013,09,29,14,29,2.10
2013,09,29,14,30,2.30
2013,09,29,14,31,0.50
2013,09,29,14,32,0.10
2013,09,29,14,33,1.70
2013,09,29,14,34,1.30
2013,09,29,14,35,0.00
2013,09,29,14,36,0.20
2013,09,29,14,37,1.60
2013,09,29,14,38,0.40
2013,09,29,14,39,0.60
2013,09,29,14,40,0.10
2013,09,29,14,41,0.00
2013,09,29,14,42,1.80
2013,09,29,14,43,1.80
2013,09,29,14,44,4.30
2013,09,29,14,45,4.10
2013,09,29,14,46,1.30
2013,09,29,14,47,1.60
2013,09,29,14,48,4.80
2013,09,29,14,49,6.50
2013,09,29,14,50,4.30
2013,09,29,14,51,4.70
2013,09,29,14,52,5.90
2013,09,29,14,53,4.90
2013,09,29,14,54,5.40
2013,09,29,14,55,2.90
2013,09,29,14,56,4.10
2013,09,29,14,57,4.40
2013,09,29,14,58,4.10
2013,09,29,14,59,1.10
2013,09,29,15,00,2.90
2013,09,29,15,01,2.80
2013,09,29,15,02,2.30
2013,09,29,15,03,4.50
2013,09,29,15,04,3.50
2013,09,29,15,05,3.00
2013,09,29,15,06,0.70
2013,09,29,15,07,1.50
2013,09,29,15,08,1.70
2013,09,29,15,09,0.60
2013,09,29,15,10,1.70
2013,09,29,15,11,3.30
2013,09,29,15,12,4.00
2013,09,29,15,13,3.50
2013,09,29,15,14,1.60
2013,09,29,15,15,0.00
2013,09,29,15,16,0.00
2013,09,29,15,17,0.00
2013,09,29,15,18,0.00
2013,09,29,15,19,0.00
2013,09,29,15,20,0.30
2013,09,29,15,21,0.60
2013,09,29,15,22,0.80
2013,09,29,15,23,0.60
2013,09,29,15,24,0.30
2013,09,29,15,25,0.00
2013,09,29,15,26,3.00
2013,09,29,15,27,0.70
2013,09,29,15,28,1.50
2013,09,29,15,29,2.30
2013,09,29,15,30,6.20
2013,09,29,15,31,7.20
2013,09,29,15,32,6.80
2013,09,29,15,33,3.60
2013,09,29,15,34,5.10
2013,09,29,15,35,5.40
2013,09,29,15,36,6.50
2013,09,29,15,37,7.10
2013,09,29,15,38,3.80
2013,09,29,15,39,8.10
2013,09,29,15,40,7.50
2013,09,29,15,41,6.90
2013,09,29,15,42,5.20
2013,09,29,15,43,4.60
2013,09,29,15,44,6.10
2013,09,29,15,45,6.80
2013,09,29,15,46,10.70
2013,09,29,15,47,15.40
2013,09,29,15,48,8.70
2013,09,29,15,49,9.20
2013,09,29,15,50,16.70
2013,09,29,15,51,14.00
2013,09,29,15,52,9.20
2013,09,29,15,53,9.10
2013,09,29,15,54,8.90
2013,09,29,15,55,14.70
2013,09,29,15,56,14.40
2013,09,29,15,57,17.40
2013,09,29,15,58,13.50
2013,09,29,15,59,12.40
2013,09,29,16,00,12.00
2013,09,29,16,01,15.70
2013,09,29,16,02,12.80
2013,09,29,16,03,28.00
2013,09,29,16,04,17.40
2013,09,29,16,05,25.80
2013,09,29,16,06,28.20
2013,09,29,16,07,14.60
2013,09,29,16,08,18.20
2013,09,29,16,09,27.30
2013,09,29,16,10,23.70
2013,09,29,16,11,26.00
2013,09,29,16,12,19.50
2013,09,29,16,13,25.90
2013,09,29,16,14,24.70
2013,09,29,16,15,29.20
2013,09,29,16,16,20.60
2013,09,29,16,17,25.70
2013,09,29,16,18,29.80
2013,09,29,16,19,26.80
2013,09,29,16,20,27.40
2013,09,29,16,21,20.80
2013,09,29,16,22,22.60
2013,09,29,16,23,26.40
2013,09,29,16,24,21.40
2013,09,29,16,25,22.40
2013,09,29,16,26,15.50
2013,09,29,16,27,20.80
2013,09,29,16,28,18.30
2013,09,29,16,29,19.90
2013,09,29,16,30,21.50
2013,09,29,16,31,25.50
2013,09,29,16,32,22.10
2013,09,29,16,33,24.60
2013,09,29,16,34,34.80
2013,09,29,16,35,27.40
2013,09,29,16,36,24.90
2013,09,29,16,37,27.10
2013,09,29,16,38,33.60
2013,09,29,16,39,24.40
2013,09,29,16,40,28.10
2013,09,29,16,41,20.90
2013,09,29,16,42,18.40
2013,09,29,16,43,27.50
2013,09,29,16,44,19.10
2013,09,29,16,45,26.50
2013,09,29,16,46,27.80
2013,09,29,16,47,32.60
2013,09,29,16,48,26.00
2013,09,29,16,49,22.00
2013,09,29,16,50,24.20
2013,09,29,16,51,27.30
2013,09,29,16,52,30.30
2013,09,29,16,53,23.80
2013,09,29,16,54,28.20
2013,09,29,16,55,24.60
2013,09,29,16,56,23.90
2013,09,29,16,57,33.00
2013,09,29,16,58,29.90
2013,09,29,16,59,22.60
2013,09,29,17,00,22.40
2013,09,29,17,01,30.70
2013,09,29,17,02,19.60
2013,09,29,17,03,19.30
2013,09,29,17,04,31.30
2013,09,29,17,05,25.80
2013,09,29,17,06,30.60
2013,09,29,17,07,25.90
2013,09,29,17,08,31.30
2013,09,29,17,09,38.80
2013,09,29,17,10,33.70
2013,09,29,17,11,34.80
2013,09,29,17,12,27.60
2013,09,29,17,13,24.30
2013,09,29,17,14,28.40
2013,09,29,17,15,34.80
2013,09,29,17,16,28.40
2013,09,29,17,17,20.70
2013,09,29,17,18,40.00
2013,09,29,17,19,29.00
2013,09,29,17,20,22.50
2013,09,29,17,21,18.40
2013,09,29,17,22,30.90
2013,09,29,17,23,35.90
2013,09,29,17,24,34.60
2013,09,29,17,25,31.60
2013,09,29,17,26,25.90
2013,09,29,17,27,24.70
2013,09,29,17,28,30.80
2013,09,29,17,29,22.90
2013,09,29,17,30,21.20
2013,09,29,17,31,29.00
2013,09,29,17,32,36.60
2013,09,29,17,33,41.40
2013,09,29,17,34,31.40
2013,09,29,17,35,29.90
2013,09,29,17,36,34.40
2013,09,29,17,37,26.20
2013,09,29,17,38,30.40
2013,09,29,17,39,22.00
2013,09,29,17,40,29.60
2013,09,29,17,41,27.80
2013,09,29,17,42,23.60
2013,09,29,17,43,30.40
2013,09,29,17,44,31.00
2013,09,29,17,45,35.60
2013,09,29,17,46,33.60
2013,09,29,17,47,25.90
2013,09,29,17,48,25.10
2013,09,29,17,49,28.40
2013,09,29,17,50,20.90
2013,09,29,17,51,27.50
2013,09,29,17,52,28.80
2013,09,29,17,53,32.40
2013,09,29,17,54,29.30
2013,09,29,17,55,33.60
2013,09,29,17,56,30.70
2013,09,29,17,57,32.80